Погода в Куимихе

Россия / Архангельская область     61°10′42″N   46°32′35″E
темп.,
°C
ветер,
м/с
пор.,
м/с
влажн.,
%
обл.,
%
осадки,
мм/ч
давл.,
гПа
погр.,
м
17 мая, вт
вт1700:00+6с41089100 0.0 1001382
03:00+3с499452 0.0 1002367
06:00+5с4990100 0.1 1003508
09:00+6ссв388291 0.2 1005751
12:00+8ссв5666100 0.0 10061299
15:00+8ссв4765100 0.0 10071432
18:00+7ссв4764100 0.0 1008995
21:00+5ссв496959 0.0 1009637
18 мая, ср
ср1800:00+2с3108047 0.0 1009396
03:00+3ссв3664100 0.0 1009679
06:00+4с3565100 0.0 10091067
09:00+5с4560100 0.0 10081479
12:00+5с3458100 0.0 10081334
15:00+6с3458100 0.1 10081296
18:00+5ссз3469100 0.2 1007891
21:00+3ссз3693100 0.6 1007519
19 мая, чт
чт1900:00+2ссз2596100 0.2 1007371
03:00+1ссз2495100 0.3 1006140
06:00+3ссз268291 0.0 1006601
09:00+6с3461100 0.4 10061293
12:00+8ссз4554100 0.9 10061690
15:00+5сз5883100 2.5 1008795
18:00+4сз489297 0.2 1009592
21:00+4сз3882100 0.6 1009301
20 мая, пт
пт2000:00+3ссз4990100 0.2 1010581
03:00+2ссз41192100 0.2 1011485
06:00+3ссз4108597 0.0 1013647
09:00+6ссз686083 0.0 10141349
12:00+6ссз785279 0.0 10151587
15:00+3ссз5966100 0.1 10161388
18:00+4ссз596893 0.1 10161254
21:00+2ссз4972100 0.1 1016614
21 мая, сб
сб2100:00−1сз278399 0.0 1016178
03:00−2ссз3108596 0.0 1016347
06:000с5864100 0.0 1016664
09:00+4с574568 0.0 10161317
12:00+8с58325 0.0 10151756
15:00+9с57305 0.0 10142061
18:00+9с47375 0.0 10142043
21:00+2ссз25610 0.0 101570